World > North America > United States > New York

Hourly New Woodstock, NY Regional Weather

Feedback E-mail the Weather

Latest News

New Woodstock, NY Weather Maps

°F °C°F °C
New Woodstock Weather Map
UTC Time: 5/27/2022, 07:20
Your Time:

New Woodstock, NY Regional Weather

Expires:202205270800;;638182
ASUS41 KBGM 270710
RWRBGM

REGIONAL WEATHER ROUNDUP
NATIONAL WEATHER SERVICE BINGHAMTON NY
300 AM EDT FRI MAY 27 2022

Note: "fair" indicates few or no clouds below 12,000 feet with no
significant weather and/or obstructions to visibility.

* = Station(s) that does not report precipitation, such as rain, 
snow, etc, also no thunder or fog.


NYZ009-015>018-022>025-036-037-044>046-055>057-062-270800
...Central New York...
  
CITY           SKY/WX    TMP DP  RH WIND       PRES   REMARKS
Binghamton     CLOUDY    63  59  87 S10       29.96F                  
Cortland       CLOUDY    64  59  82 S9G16     29.93F                  
Dansville      CLOUDY    70  61  73 SE9       29.86F                  
Elmira         CLOUDY    69  60  73 SW7       29.91F                  
Ithaca         CLOUDY    67  62  84 S5        29.93F                  
Hamilton       CLOUDY    66  57  72 S7        29.94S                  
Monticello     CLOUDY    61  61 100 SW6       30.03F FOG              
Norwich        CLOUDY    64  59  82 S12       29.97F                  
Oneonta        CLEAR     63  59  88 SW5       29.98F                  
Penn Yan       CLOUDY    69  59  70 S12       29.88F                  
Rome           LGT RAIN  66  62  87 E6        29.91F                  
Seneca Falls   LGT RAIN  64  61  88 S9        29.88F                  
Sidney         CLOUDY    66  61  82 CALM      29.96F                  
Skaneateles    LGT RAIN  66  64  94 VRB6      29.90S                  
Syracuse       LGT RAIN  67  61  81 S10       29.88F                  
$$
 

SKY/WX - Weather  TMP - Temperature  DP - Dew Point  RH - Humidity
WIND - Wind Direction/Speed PRES - Barometric Pressure VSB - Visibility
WCI - Wind Chill Index E13G22 Wind - East Wind 13 mph/Gusts of 22 mph

Trending Headlines

New Woodstock Radar Loop



New Woodstock Quick Facts


National Two Day Weather Forecast


E-mail the New Woodstock Weather Forecast

Voice your opinion or tell us about page issues...